Time,TemperatureF,DewpointF,PressureIn,WindDirection,WindDirectionDegrees,WindSpeedMPH,WindSpeedGustMPH,Humidity,HourlyPrecipIn,Conditions,Clouds,dailyrainin,SoftwareType,DateUTC
2013-07-01 00:01:00,70.8,70.2,29.84,WNW,302,0.0,0.0,98,0.00,,,0.00,Wunderground v.1.15,2013-07-01 04:01:00,
2013-07-01 00:02:00,70.8,70.2,29.84,WNW,302,0.0,0.0,98,0.00,,,0.00,Wunderground v.1.15,2013-07-01 04:02:00,
2013-07-01 00:05:00,70.8,70.2,29.84,WNW,302,0.0,0.0,98,0.00,,,0.00,Wunderground v.1.15,2013-07-01 04:05:00,
2013-07-01 00:07:00,70.8,70.2,29.84,WNW,302,0.0,0.0,98,0.00,,,0.00,Wunderground v.1.15,2013-07-01 04:07:00,
2013-07-01 00:08:00,70.8,70.2,29.84,WNW,302,0.0,0.0,98,0.00,,,0.00,Wunderground v.1.15,2013-07-01 04:08:00,
2013-07-01 00:10:00,70.8,70.2,29.84,WNW,302,0.0,0.0,98,0.00,,,0.00,Wunderground v.1.15,2013-07-01 04:10:00,
2013-07-01 00:12:00,70.8,70.2,29.84,WNW,302,0.0,0.0,98,0.00,,,0.00,Wunderground v.1.15,2013-07-01 04:12:00,
2013-07-01 00:13:00,70.8,70.2,29.84,WNW,302,0.0,0.0,98,0.00,,,0.00,Wunderground v.1.15,2013-07-01 04:13:00,
2013-07-01 00:14:00,70.8,70.2,29.84,WNW,302,0.0,0.0,98,0.00,,,0.00,Wunderground v.1.15,2013-07-01 04:14:00,
2013-07-01 00:15:00,70.8,70.2,29.84,WNW,302,0.0,0.0,98,0.00,,,0.00,Wunderground v.1.15,2013-07-01 04:15:00,
2013-07-01 00:16:00,70.8,70.2,29.84,WNW,302,0.0,0.0,98,0.00,,,0.00,Wunderground v.1.15,2013-07-01 04:16:00,
2013-07-01 00:18:00,70.8,70.2,29.84,WNW,302,0.0,0.0,98,0.00,,,0.00,Wunderground v.1.15,2013-07-01 04:18:00,
2013-07-01 00:19:00,70.8,70.2,29.84,WNW,302,0.0,0.0,98,0.00,,,0.00,Wunderground v.1.15,2013-07-01 04:19:00,
2013-07-01 00:20:00,70.8,70.2,29.84,WNW,302,0.0,0.0,98,0.00,,,0.00,Wunderground v.1.15,2013-07-01 04:20:00,
2013-07-01 00:23:00,70.8,70.2,29.84,WNW,302,0.0,0.0,98,0.00,,,0.00,Wunderground v.1.15,2013-07-01 04:23:00,
2013-07-01 00:26:00,70.8,70.2,29.84,WNW,302,0.0,0.0,98,0.00,,,0.00,Wunderground v.1.15,2013-07-01 04:26:00,
2013-07-01 00:27:00,70.8,70.2,29.84,WNW,302,0.0,0.0,98,0.00,,,0.00,Wunderground v.1.15,2013-07-01 04:27:00,
2013-07-01 06:53:00,72.4,71.8,29.88,East,89,0.0,0.0,98,1.43,,,0.35,Wunderground v.1.15,2013-07-01 10:53:00,
2013-07-01 06:54:00,72.4,71.8,29.88,East,89,0.0,0.0,98,2.21,,,0.39,Wunderground v.1.15,2013-07-01 10:54:00,
2013-07-01 06:55:00,72.4,71.8,29.87,East,87,0.0,0.0,98,2.33,,,0.45,Wunderground v.1.15,2013-07-01 10:55:00,
2013-07-01 06:56:00,72.3,71.7,29.87,East,86,0.0,0.0,98,0.80,,,0.46,Wunderground v.1.15,2013-07-01 10:56:00,
2013-07-01 06:59:00,72.0,71.4,29.86,East,84,0.0,0.0,98,0.67,,,0.50,Wunderground v.1.15,2013-07-01 10:59:00,
2013-07-01 07:00:00,71.7,71.1,29.86,East,84,0.0,0.0,98,0.49,,,0.51,Wunderground v.1.15,2013-07-01 11:00:00,
2013-07-01 07:05:00,71.0,70.4,29.86,East,85,0.0,0.0,98,0.81,,,0.55,Wunderground v.1.15,2013-07-01 11:05:00,
2013-07-01 07:06:00,70.9,70.0,29.86,East,85,0.0,0.0,97,1.17,,,0.57,Wunderground v.1.15,2013-07-01 11:06:00,
2013-07-01 07:07:00,70.8,69.9,29.86,East,85,0.0,0.0,97,1.46,,,0.59,Wunderground v.1.15,2013-07-01 11:07:00,
2013-07-01 07:08:00,70.7,69.8,29.87,East,83,0.0,0.0,97,1.32,,,0.61,Wunderground v.1.15,2013-07-01 11:08:00,
2013-07-01 07:12:00,70.3,69.4,29.87,East,85,0.0,0.0,97,0.38,,,0.65,Wunderground v.1.15,2013-07-01 11:12:00,
2013-07-01 07:13:00,70.3,69.4,29.86,East,85,0.0,0.0,97,0.38,,,0.65,Wunderground v.1.15,2013-07-01 11:13:00,
2013-07-01 07:15:00,70.2,69.3,29.86,East,84,0.0,0.0,97,0.27,,,0.66,Wunderground v.1.15,2013-07-01 11:15:00,
2013-07-01 07:17:00,70.1,69.2,29.86,East,84,0.0,0.0,97,0.19,,,0.67,Wunderground v.1.15,2013-07-01 11:17:00,
2013-07-01 07:21:00,70.0,69.4,29.88,East,85,0.0,0.0,98,0.23,,,0.68,Wunderground v.1.15,2013-07-01 11:21:00,
2013-07-01 07:22:00,69.9,69.3,29.88,East,84,0.0,0.0,98,0.26,,,0.69,Wunderground v.1.15,2013-07-01 11:22:00,
2013-07-01 07:26:00,69.9,69.3,29.89,East,85,0.0,0.0,98,0.31,,,0.71,Wunderground v.1.15,2013-07-01 11:26:00,
2013-07-01 07:27:00,69.9,69.3,29.89,East,84,0.0,0.0,98,0.31,,,0.71,Wunderground v.1.15,2013-07-01 11:27:00,
2013-07-01 07:28:00,69.9,69.3,29.89,East,85,0.0,0.0,98,0.22,,,0.71,Wunderground v.1.15,2013-07-01 11:28:00,
2013-07-01 07:31:00,69.9,69.3,29.89,East,85,0.0,0.0,98,0.15,,,0.72,Wunderground v.1.15,2013-07-01 11:31:00,
2013-07-01 07:33:00,69.9,69.3,29.88,East,84,0.0,0.0,98,0.28,,,0.73,Wunderground v.1.15,2013-07-01 11:33:00,
2013-07-01 07:34:00,69.9,69.3,29.88,East,84,0.0,0.0,98,0.23,,,0.73,Wunderground v.1.15,2013-07-01 11:34:00,
2013-07-01 07:36:00,69.8,69.2,29.88,East,85,0.0,0.0,98,0.13,,,0.73,Wunderground v.1.15,2013-07-01 11:36:00,
2013-07-01 07:37:00,69.8,69.2,29.88,East,84,0.0,0.0,98,0.11,,,0.74,Wunderground v.1.15,2013-07-01 11:37:00,
2013-07-01 07:40:00,69.9,69.3,29.88,East,85,0.0,0.0,98,0.11,,,0.74,Wunderground v.1.15,2013-07-01 11:40:00,
2013-07-01 07:41:00,69.9,69.3,29.87,East,84,0.0,0.0,98,0.11,,,0.74,Wunderground v.1.15,2013-07-01 11:41:00,
2013-07-01 07:42:00,69.9,69.3,29.87,East,85,0.0,0.0,98,0.12,,,0.74,Wunderground v.1.15,2013-07-01 11:42:00,
2013-07-01 07:43:00,69.9,69.3,29.88,East,83,0.0,0.0,98,0.12,,,0.75,Wunderground v.1.15,2013-07-01 11:43:00,
2013-07-01 07:46:00,69.9,69.3,29.88,East,85,0.0,0.0,98,0.12,,,0.75,Wunderground v.1.15,2013-07-01 11:46:00,
2013-07-01 07:48:00,69.8,69.2,29.88,East,83,0.0,0.0,98,0.13,,,0.76,Wunderground v.1.15,2013-07-01 11:48:00,
2013-07-01 07:49:00,69.8,69.2,29.88,East,84,0.0,0.0,98,0.13,,,0.76,Wunderground v.1.15,2013-07-01 11:49:00,
2013-07-01 07:50:00,69.8,69.2,29.88,East,85,0.0,0.0,98,0.19,,,0.77,Wunderground v.1.15,2013-07-01 11:50:00,
2013-07-01 07:51:00,69.8,69.2,29.88,East,84,0.0,0.0,98,0.19,,,0.77,Wunderground v.1.15,2013-07-01 11:51:00,
2013-07-01 07:53:00,69.8,69.2,29.88,East,85,0.0,0.0,98,0.17,,,0.77,Wunderground v.1.15,2013-07-01 11:53:00,
2013-07-01 07:54:00,69.8,69.2,29.88,East,85,0.0,0.0,98,0.15,,,0.78,Wunderground v.1.15,2013-07-01 11:54:00,
2013-07-01 07:55:00,69.8,69.2,29.88,East,85,0.0,0.0,98,0.15,,,0.78,Wunderground v.1.15,2013-07-01 11:55:00,
2013-07-01 07:58:00,69.8,69.2,29.88,East,85,0.0,0.0,98,0.14,,,0.79,Wunderground v.1.15,2013-07-01 11:58:00,
2013-07-01 07:59:00,69.8,69.2,29.88,East,85,0.0,0.0,98,0.14,,,0.79,Wunderground v.1.15,2013-07-01 11:59:00,
2013-07-01 08:02:00,69.8,69.2,29.88,East,85,0.0,0.0,98,0.14,,,0.79,Wunderground v.1.15,2013-07-01 12:02:00,
2013-07-01 08:03:00,69.8,69.2,29.88,East,84,0.0,0.0,98,0.14,,,0.80,Wunderground v.1.15,2013-07-01 12:03:00,
2013-07-01 08:04:00,69.8,69.2,29.88,East,85,0.0,0.0,98,0.14,,,0.80,Wunderground v.1.15,2013-07-01 12:04:00,
2013-07-01 08:05:00,69.8,69.2,29.88,East,85,0.0,0.0,98,0.14,,,0.80,Wunderground v.1.15,2013-07-01 12:05:00,
2013-07-01 08:09:00,69.9,69.3,29.88,East,85,0.0,0.0,98,0.19,,,0.82,Wunderground v.1.15,2013-07-01 12:09:00,
2013-07-01 08:10:00,69.9,69.3,29.88,East,84,0.0,0.0,98,0.19,,,0.82,Wunderground v.1.15,2013-07-01 12:10:00,
2013-07-01 08:11:00,69.9,69.3,29.88,East,84,0.0,0.0,98,0.19,,,0.82,Wunderground v.1.15,2013-07-01 12:11:00,
2013-07-01 08:14:00,69.9,69.3,29.88,East,84,0.0,0.0,98,0.16,,,0.83,Wunderground v.1.15,2013-07-01 12:14:00,
2013-07-01 08:16:00,70.0,69.4,29.87,East,85,0.0,0.0,98,0.16,,,0.83,Wunderground v.1.15,2013-07-01 12:16:00,
2013-07-01 08:18:00,70.0,69.4,29.87,East,84,0.0,0.0,98,0.10,,,0.83,Wunderground v.1.15,2013-07-01 12:18:00,
2013-07-01 08:19:00,70.0,69.4,29.87,East,85,0.0,0.0,98,0.10,,,0.84,Wunderground v.1.15,2013-07-01 12:19:00,
2013-07-01 08:20:00,70.0,69.4,29.87,East,84,0.0,0.0,98,0.10,,,0.84,Wunderground v.1.15,2013-07-01 12:20:00,
2013-07-01 08:22:00,70.1,69.5,29.88,East,84,0.0,0.0,98,0.10,,,0.84,Wunderground v.1.15,2013-07-01 12:22:00,
2013-07-01 08:23:00,70.1,69.5,29.88,East,84,0.0,0.0,98,0.10,,,0.84,Wunderground v.1.15,2013-07-01 12:23:00,
2013-07-01 08:24:00,70.1,69.5,29.88,East,85,0.0,0.0,98,0.10,,,0.84,Wunderground v.1.15,2013-07-01 12:24:00,
2013-07-01 08:25:00,70.1,69.5,29.88,East,85,0.0,0.0,98,0.09,,,0.84,Wunderground v.1.15,2013-07-01 12:25:00,
2013-07-01 08:27:00,70.1,69.5,29.88,East,85,0.0,0.0,98,0.07,,,0.84,Wunderground v.1.15,2013-07-01 12:27:00,
2013-07-01 08:31:00,70.2,69.6,29.88,East,85,0.0,1.0,98,0.05,,,0.84,Wunderground v.1.15,2013-07-01 12:31:00,
2013-07-01 08:32:00,70.2,69.6,29.88,East,85,0.0,1.0,98,0.04,,,0.84,Wunderground v.1.15,2013-07-01 12:32:00,
2013-07-01 08:33:00,70.1,69.5,29.89,East,85,0.0,1.0,98,0.04,,,0.84,Wunderground v.1.15,2013-07-01 12:33:00,
2013-07-01 08:34:00,70.1,69.5,29.89,East,85,0.0,1.0,98,0.04,,,0.84,Wunderground v.1.15,2013-07-01 12:34:00,
2013-07-01 08:36:00,70.1,69.5,29.89,East,85,0.0,1.0,98,0.00,,,0.84,Wunderground v.1.15,2013-07-01 12:36:00,
2013-07-01 08:39:00,70.1,69.5,29.90,East,85,0.0,1.0,98,0.00,,,0.84,Wunderground v.1.15,2013-07-01 12:39:00,
2013-07-01 08:40:00,70.1,69.5,29.90,East,85,0.0,1.0,98,0.00,,,0.84,Wunderground v.1.15,2013-07-01 12:40:00,
2013-07-01 08:41:00,70.1,69.5,29.90,East,84,0.0,1.0,98,0.00,,,0.84,Wunderground v.1.15,2013-07-01 12:41:00,
2013-07-01 08:46:00,70.2,69.6,29.90,East,84,0.0,1.0,98,0.00,,,0.84,Wunderground v.1.15,2013-07-01 12:46:00,
2013-07-01 08:47:00,70.2,69.6,29.90,East,85,0.0,1.0,98,0.00,,,0.84,Wunderground v.1.15,2013-07-01 12:47:00,
2013-07-01 08:49:00,70.2,69.6,29.90,East,84,0.0,1.0,98,0.00,,,0.84,Wunderground v.1.15,2013-07-01 12:49:00,
2013-07-01 08:52:00,70.3,69.7,29.90,East,84,0.0,1.0,98,0.00,,,0.84,Wunderground v.1.15,2013-07-01 12:52:00,
2013-07-01 08:53:00,70.4,69.8,29.90,East,85,0.0,1.0,98,0.00,,,0.84,Wunderground v.1.15,2013-07-01 12:53:00,
2013-07-01 18:13:00,81.2,75.9,29.90,WSW,257,0.0,1.0,84,0.00,,,0.84,Wunderground v.1.15,2013-07-01 22:13:00,
2013-07-01 21:20:00,76.3,73.5,29.95,WSW,249,0.0,1.0,91,0.00,,,0.85,Wunderground v.1.15,2013-07-02 01:20:00,
2013-07-01 21:22:00,76.3,73.5,29.95,WSW,246,0.0,1.0,91,0.00,,,0.85,Wunderground v.1.15,2013-07-02 01:22:00,
2013-07-01 21:23:00,76.3,73.5,29.95,WSW,243,0.0,1.0,91,0.00,,,0.85,Wunderground v.1.15,2013-07-02 01:23:00,
2013-07-01 21:26:00,76.3,73.5,29.95,ENE,77,0.0,1.0,91,0.00,,,0.85,Wunderground v.1.15,2013-07-02 01:26:00,
2013-07-01 21:28:00,76.2,73.4,29.95,ENE,78,0.0,1.0,91,0.00,,,0.85,Wunderground v.1.15,2013-07-02 01:28:00,
2013-07-01 21:31:00,76.2,73.4,29.96,ENE,77,0.0,1.0,91,0.00,,,0.85,Wunderground v.1.15,2013-07-02 01:31:00,
2013-07-01 21:32:00,76.2,73.7,29.96,ENE,78,0.0,1.0,92,0.00,,,0.85,Wunderground v.1.15,2013-07-02 01:32:00,
2013-07-01 21:34:00,76.2,73.7,29.96,ENE,76,0.0,1.0,92,0.00,,,0.85,Wunderground v.1.15,2013-07-02 01:34:00,
2013-07-01 21:36:00,76.1,73.6,29.96,ENE,76,0.0,1.0,92,0.00,,,0.85,Wunderground v.1.15,2013-07-02 01:36:00,
2013-07-01 21:40:00,76.1,73.6,29.96,WNW,290,0.0,1.0,92,0.00,,,0.85,Wunderground v.1.15,2013-07-02 01:40:00,
2013-07-01 21:41:00,76.1,73.6,29.96,WNW,283,0.0,1.0,92,0.00,,,0.85,Wunderground v.1.15,2013-07-02 01:41:00,
2013-07-01 21:42:00,76.1,73.6,29.97,NNW,333,0.0,1.0,92,0.00,,,0.85,Wunderground v.1.15,2013-07-02 01:42:00,
2013-07-01 21:44:00,76.1,73.6,29.97,NW,321,0.0,1.0,92,0.00,,,0.85,Wunderground v.1.15,2013-07-02 01:44:00,
2013-07-01 21:46:00,76.1,73.6,29.97,WNW,302,0.0,1.0,92,0.00,,,0.85,Wunderground v.1.15,2013-07-02 01:46:00,
2013-07-01 21:48:00,76.0,73.5,29.97,WSW,255,0.0,1.0,92,0.00,,,0.85,Wunderground v.1.15,2013-07-02 01:48:00,
2013-07-01 21:50:00,76.0,73.5,29.97,WSW,238,0.0,1.0,92,0.00,,,0.85,Wunderground v.1.15,2013-07-02 01:50:00,
2013-07-01 21:51:00,76.0,73.5,29.97,WSW,238,0.0,1.0,92,0.00,,,0.85,Wunderground v.1.15,2013-07-02 01:51:00,
2013-07-01 21:54:00,76.0,73.5,29.97,WSW,239,0.0,1.0,92,0.00,,,0.85,Wunderground v.1.15,2013-07-02 01:54:00,
2013-07-01 21:55:00,75.9,73.4,29.97,WSW,239,0.0,1.0,92,0.00,,,0.85,Wunderground v.1.15,2013-07-02 01:55:00,
2013-07-01 21:56:00,75.9,73.4,29.97,WSW,239,0.0,1.0,92,0.00,,,0.85,Wunderground v.1.15,2013-07-02 01:56:00,
2013-07-01 21:59:00,75.9,73.4,29.97,SW,225,0.0,0.0,92,0.00,,,0.85,Wunderground v.1.15,2013-07-02 01:59:00,
2013-07-01 22:01:00,75.9,73.7,29.97,SW,227,0.0,0.0,93,0.00,,,0.85,Wunderground v.1.15,2013-07-02 02:01:00,
2013-07-01 22:02:00,75.8,73.6,29.97,SW,226,0.0,0.0,93,0.00,,,0.85,Wunderground v.1.15,2013-07-02 02:02:00,
2013-07-01 22:03:00,75.8,73.6,29.97,SW,224,0.0,0.0,93,0.00,,,0.85,Wunderground v.1.15,2013-07-02 02:03:00,
2013-07-01 22:07:00,75.8,73.6,29.97,SW,232,0.0,0.0,93,0.00,,,0.85,Wunderground v.1.15,2013-07-02 02:07:00,
2013-07-01 22:08:00,75.8,73.6,29.97,SW,232,0.0,0.0,93,0.00,,,0.85,Wunderground v.1.15,2013-07-02 02:08:00,
2013-07-01 22:09:00,75.7,73.5,29.97,SW,230,0.0,0.0,93,0.00,,,0.85,Wunderground v.1.15,2013-07-02 02:09:00,
2013-07-01 22:11:00,75.7,73.5,29.97,WSW,246,0.0,1.0,93,0.00,,,0.85,Wunderground v.1.15,2013-07-02 02:11:00,
2013-07-01 22:14:00,75.8,73.6,29.97,SW,231,0.0,1.0,93,0.00,,,0.85,Wunderground v.1.15,2013-07-02 02:14:00,
2013-07-01 22:15:00,75.8,73.6,29.97,SW,232,0.0,1.0,93,0.00,,,0.85,Wunderground v.1.15,2013-07-02 02:15:00,
2013-07-01 22:16:00,75.8,73.6,29.97,SW,232,0.0,1.0,93,0.00,,,0.85,Wunderground v.1.15,2013-07-02 02:16:00,
2013-07-01 22:17:00,75.8,73.6,29.97,SW,232,0.0,1.0,93,0.00,,,0.85,Wunderground v.1.15,2013-07-02 02:17:00,
2013-07-01 22:18:00,75.8,73.6,29.97,SW,232,0.0,1.0,93,0.00,,,0.85,Wunderground v.1.15,2013-07-02 02:18:00,
2013-07-01 22:23:00,75.8,73.6,29.97,SW,232,0.0,0.0,93,0.00,,,0.85,Wunderground v.1.15,2013-07-02 02:23:00,
2013-07-01 22:24:00,75.8,73.6,29.97,SW,229,0.0,0.0,93,0.00,,,0.85,Wunderground v.1.15,2013-07-02 02:24:00,
2013-07-01 22:26:00,75.8,73.6,29.97,SW,229,0.0,0.0,93,0.00,,,0.85,Wunderground v.1.15,2013-07-02 02:26:00,
2013-07-01 22:27:00,75.8,73.6,29.97,SW,230,0.0,0.0,93,0.00,,,0.85,Wunderground v.1.15,2013-07-02 02:27:00,
2013-07-01 22:32:00,75.8,73.6,29.97,SW,230,0.0,2.0,93,0.00,,,0.85,Wunderground v.1.15,2013-07-02 02:32:00,
2013-07-01 22:33:00,75.8,73.6,29.97,SW,230,0.0,2.0,93,0.00,,,0.85,Wunderground v.1.15,2013-07-02 02:33:00,
2013-07-01 22:34:00,75.7,73.5,29.97,SW,231,0.0,2.0,93,0.00,,,0.85,Wunderground v.1.15,2013-07-02 02:34:00,
2013-07-01 22:35:00,75.8,73.6,29.97,SW,230,0.0,2.0,93,0.00,,,0.85,Wunderground v.1.15,2013-07-02 02:35:00,
2013-07-01 22:38:00,75.7,73.5,29.97,SW,231,0.0,2.0,93,0.00,,,0.85,Wunderground v.1.15,2013-07-02 02:38:00,
2013-07-01 22:40:00,75.7,73.5,29.97,SSE,157,0.0,2.0,93,0.00,,,0.85,Wunderground v.1.15,2013-07-02 02:40:00,
2013-07-01 22:41:00,75.7,73.5,29.97,SSE,156,0.0,2.0,93,0.00,,,0.85,Wunderground v.1.15,2013-07-02 02:41:00,
2013-07-01 22:42:00,75.7,73.5,29.97,SSE,156,0.0,2.0,93,0.00,,,0.85,Wunderground v.1.15,2013-07-02 02:42:00,
2013-07-01 22:44:00,75.8,73.6,29.97,SSE,156,0.0,2.0,93,0.00,,,0.85,Wunderground v.1.15,2013-07-02 02:44:00,
2013-07-01 22:47:00,75.7,73.8,29.97,SSE,156,0.0,2.0,94,0.00,,,0.85,Wunderground v.1.15,2013-07-02 02:47:00,
2013-07-01 22:49:00,75.7,73.8,29.97,SSE,160,0.0,2.0,94,0.00,,,0.85,Wunderground v.1.15,2013-07-02 02:49:00,
2013-07-01 22:52:00,75.8,73.9,29.97,SSE,159,0.0,2.0,94,0.00,,,0.85,Wunderground v.1.15,2013-07-02 02:52:00,
2013-07-01 22:55:00,75.8,73.9,29.97,SSE,159,0.0,2.0,94,0.00,,,0.85,Wunderground v.1.15,2013-07-02 02:55:00,
2013-07-01 22:57:00,75.7,73.8,29.97,SW,226,0.0,2.0,94,0.00,,,0.85,Wunderground v.1.15,2013-07-02 02:57:00,
2013-07-01 23:01:00,75.7,73.8,29.97,SW,226,0.0,2.0,94,0.00,,,0.85,Wunderground v.1.15,2013-07-02 03:01:00,
2013-07-01 23:03:00,75.7,73.8,29.97,SW,226,0.0,2.0,94,0.00,,,0.85,Wunderground v.1.15,2013-07-02 03:03:00,
2013-07-01 23:06:00,75.7,73.8,29.97,SW,226,0.0,2.0,94,0.00,,,0.85,Wunderground v.1.15,2013-07-02 03:06:00,
2013-07-01 23:08:00,75.7,73.8,29.97,SW,226,0.0,2.0,94,0.00,,,0.85,Wunderground v.1.15,2013-07-02 03:08:00,
2013-07-01 23:11:00,75.7,73.8,29.97,SW,227,0.0,2.0,94,0.00,,,0.85,Wunderground v.1.15,2013-07-02 03:11:00,
2013-07-01 23:15:00,75.6,73.8,29.97,SW,226,0.0,2.0,94,0.00,,,0.85,Wunderground v.1.15,2013-07-02 03:15:00,
2013-07-01 23:18:00,75.6,73.8,29.97,WSW,249,0.0,2.0,94,0.00,,,0.85,Wunderground v.1.15,2013-07-02 03:18:00,
2013-07-01 23:20:00,75.6,73.8,29.97,WSW,248,0.0,2.0,94,0.00,,,0.85,Wunderground v.1.15,2013-07-02 03:20:00,
2013-07-01 23:23:00,75.6,73.8,29.97,SW,233,0.0,2.0,94,0.00,,,0.85,Wunderground v.1.15,2013-07-02 03:23:00,
2013-07-01 23:25:00,75.5,73.7,29.97,SW,233,0.0,2.0,94,0.00,,,0.85,Wunderground v.1.15,2013-07-02 03:25:00,
2013-07-01 23:29:00,75.5,73.7,29.97,SW,233,0.0,2.0,94,0.00,,,0.85,Wunderground v.1.15,2013-07-02 03:29:00,
2013-07-01 23:30:00,75.5,73.7,29.97,SW,233,0.0,2.0,94,0.00,,,0.85,Wunderground v.1.15,2013-07-02 03:30:00,
2013-07-01 23:31:00,75.5,73.7,29.97,SW,233,0.0,2.0,94,0.00,,,0.85,Wunderground v.1.15,2013-07-02 03:31:00,
2013-07-01 23:35:00,75.5,73.7,29.97,SW,234,0.0,2.0,94,0.00,,,0.85,Wunderground v.1.15,2013-07-02 03:35:00,
2013-07-01 23:36:00,75.5,73.7,29.97,SW,233,0.0,2.0,94,0.00,,,0.85,Wunderground v.1.15,2013-07-02 03:36:00,
2013-07-01 23:37:00,75.5,73.7,29.97,SW,233,0.0,2.0,94,0.00,,,0.85,Wunderground v.1.15,2013-07-02 03:37:00,
2013-07-01 23:38:00,75.5,73.7,29.97,SW,233,0.0,2.0,94,0.00,,,0.85,Wunderground v.1.15,2013-07-02 03:38:00,
2013-07-01 23:40:00,75.5,73.7,29.97,SW,233,0.0,2.0,94,0.00,,,0.85,Wunderground v.1.15,2013-07-02 03:40:00,
2013-07-01 23:42:00,75.5,73.7,29.97,SW,233,0.0,2.0,94,0.00,,,0.85,Wunderground v.1.15,2013-07-02 03:42:00,
2013-07-01 23:43:00,75.5,73.7,29.97,SW,233,0.0,2.0,94,0.00,,,0.85,Wunderground v.1.15,2013-07-02 03:43:00,
2013-07-01 23:47:00,75.5,73.7,29.98,SW,234,0.0,2.0,94,0.00,,,0.85,Wunderground v.1.15,2013-07-02 03:47:00,
2013-07-01 23:50:00,75.4,73.6,29.98,SW,233,0.0,2.0,94,0.00,,,0.85,Wunderground v.1.15,2013-07-02 03:50:00,
2013-07-01 23:51:00,75.4,73.6,29.98,SW,233,0.0,2.0,94,0.00,,,0.85,Wunderground v.1.15,2013-07-02 03:51:00,
2013-07-01 23:53:00,75.4,73.6,29.98,SW,233,0.0,2.0,94,0.00,,,0.85,Wunderground v.1.15,2013-07-02 03:53:00,
2013-07-01 23:56:00,75.4,73.6,29.98,SW,233,0.0,2.0,94,0.00,,,0.85,Wunderground v.1.15,2013-07-02 03:56:00,
2013-07-01 23:57:00,75.4,73.6,29.98,SW,233,0.0,2.0,94,0.00,,,0.85,Wunderground v.1.15,2013-07-02 03:57:00,
2013-07-01 23:59:00,75.4,73.6,29.98,SW,234,0.0,0.0,94,0.00,,,0.85,Wunderground v.1.15,2013-07-02 03:59:00,